Location: Harwich
(41.7160°N, 69.9939°W)
Time: 02:53:45
(UTC+02:00)

AO-7 - Pass Details

Date: 25 September 2024
Orbit: 1440 x 1458 km, 102.0° (Epoch: 10 October)

Event Time Altitude Azimuth Distance (km) Brightness Sun altitude
Rises 11:15:10 0° 26° (NNE) 4,571 ? -14.9°
Reaches altitude 10° 11:18:25 10° 36° (NE) 3,586 ? -14.3°
Maximum altitude 11:25:39 32° 97° (E) 2,309 ? -13.0°
Drops below altitude 10° 11:32:47 10° 156° (SSE) 3,558 ? -11.7°
Sets 11:35:58 0° 167° (SSE) 4,530 ? -11.1°
